Location: *
(37.5724°S, 58.0067°E)
Time: 10:45:02
(UTC+00:00)

CZ-2C R/B - Pass Details

Date: 26 September 2020
Orbit: 668 x 784 km, 98.2° (Epoch: 29 October)

Event Time Altitude Azimuth Distance (km) Brightness Sun altitude
Exits shadow 23:53:39 27° 222° (SW) 1,398 3.6 -23.2°
Drops below altitude 10° 23:56:05 10° 206° (SSW) 2,242 4.9 -22.7°
Sets 23:58:25 0° 199° (SSW) 3,152 5.7 -22.3°
